Погода в Рощино

Россия / Тюменская область     57°09′16″N   65°25′46″E
темп.,
°C
ветер,
м/с
пор.,
м/с
влажн.,
%
обл.,
%
осадки,
мм/ч
давл.,
гПа
погр.,
м
25 января, пн
пн2523:00−24ююв5998100 1.8 1033334
02:00−23ююв4798100 0.8 1031309
05:00−22юв2498100 0.9 1031114
08:00−22вюв1298100 0.0 103120
11:00−21в129499 0.0 1032120
14:00−19юв119099 0.0 1031206
17:00−20юв339894 0.1 103169
20:00−17ююв3697100 0.4 1030212
26 января, вт
вт2623:00−13ю4795100 0.9 1028202
02:00−8ююз3796100 0.3 1026164
05:00−3зюз51092100 0.3 1025349
08:00−3зюз5119598 0.1 1025399
11:00−2з6129197 0.3 1025475
14:00−2з6109197 0.0 1025551
17:00−2зюз6109196 0.0 1025512
20:00−5зюз5129197 0.0 1025380
27 января, ср
ср2723:00−4зюз6129098 0.0 1025437
02:00−4зюз61390100 0.0 1025462
05:00−6з5139099 0.0 1025353
08:00−7зюз5109246 0.0 1025245
11:00−6з5119240 0.0 1026387
14:00−4зюз589171 0.0 1026485
17:00−6зюз489479 0.0 1026191
20:00−8зюз479467 0.0 1027135
28 января, чт
чт2823:00−8юз499454 0.0 1025146
02:00−6юз4129290 0.0 1024292
05:00−4юз6138795 0.0 1022516
08:00−4зюз71583100 0.0 1021440
11:00−2зюз71583100 0.0 1020629
14:000зюз71483100 0.0 1019845
17:00−1з71395100 0.4 1018794
20:00−1з61293100 0.8 1020597
29 января, пт
пт2923:00−2з41093100 0.8 1021516
02:00−5з3695100 0.0 1022131
05:00−7з339599 0.0 102346
08:00−9сз239577 0.0 102525
11:00−8св239688 0.2 1026160
14:00−10св4695100 0.1 1028250
17:00−15всв5795100 0.3 1029243
20:00−18всв5896100 0.1 1030252